• In Hungary
  • List of Countries
  • For 7 days
  • Water Temperature
  • Satellite Maps
  • Weather Map
  • News
  • Weather Widgets
  • user-avatar
    Login

    Hourly Weather Karasino

    Today, 25 May, Friday

    Time Temperature Precipitation Wind Pressure Humidity
    00:00 +9°C° 0 mm 2 mps 755 mmHg 73%
    01:00 +8°C° 0 mm 2 mps 755 mmHg 71%
    02:00 +7°C° 0 mm 2 mps 755 mmHg 76%
    03:00 +8°C° 0 mm 2 mps 755 mmHg 72%
    04:00 +8°C° 0 mm 2 mps 756 mmHg 68%
    05:00 +9°C° 0 mm 2 mps 756 mmHg 64%
    06:00 +12°C° 0 mm 2 mps 756 mmHg 57%
    07:00 +14°C° 0 mm 2 mps 757 mmHg 50%
    08:00 +14°C° 0 mm 3 mps 757 mmHg 43%
    09:00 +17°C° 0 mm 2 mps 757 mmHg 40%
    10:00 +18°C° 0 mm 2 mps 757 mmHg 37%
    11:00 +19°C° 0 mm 2 mps 757 mmHg 35%
    12:00 +19°C° 0 mm 2 mps 757 mmHg 34%
    13:00 +20°C° 0 mm 2 mps 757 mmHg 34%
    14:00 +20°C° 0 mm 2 mps 757 mmHg 33%
    15:00 +20°C° 0 mm 2 mps 757 mmHg 35%
    16:00 +20°C° 0 mm 2 mps 757 mmHg 36%
    17:00 +21°C° 0 mm 1 mps 757 mmHg 38%
    18:00 +19°C° 0 mm 1 mps 757 mmHg 45%
    19:00 +16°C° 0 mm 1 mps 757 mmHg 53%
    20:00 +13°C° 0 mm 0 mps 757 mmHg 60%
    21:00 +12°C° 0 mm 0 mps 757 mmHg 63%
    22:00 +12°C° 0 mm 1 mps 758 mmHg 65%
    23:00 +11°C° 0 mm 1 mps 758 mmHg 67%

    Tomorrow, 26 May, Saturday

    Time Temperature Precipitation Wind Pressure Humidity
    00:00 +10°C° 0 mm 1 mps 758 mmHg 69%
    01:00 +10°C° 0 mm 1 mps 759 mmHg 71%
    02:00 +10°C° 0 mm 1 mps 759 mmHg 73%
    03:00 +10°C° 0 mm 1 mps 759 mmHg 72%
    04:00 +10°C° 0 mm 2 mps 760 mmHg 70%
    05:00 +10°C° 0 mm 2 mps 760 mmHg 69%
    06:00 +14°C° 0 mm 2 mps 760 mmHg 62%
    07:00 +16°C° 0 mm 2 mps 760 mmHg 55%
    08:00 +18°C° 0 mm 2 mps 760 mmHg 48%
    09:00 +19°C° 0 mm 2 mps 760 mmHg 44%
    10:00 +21°C° 0 mm 2 mps 760 mmHg 40%
    11:00 +23°C° 0 mm 2 mps 760 mmHg 37%
    12:00 +23°C° 0 mm 2 mps 759 mmHg 36%
    13:00 +24°C° 0 mm 3 mps 759 mmHg 35%
    14:00 +24°C° 0 mm 3 mps 759 mmHg 35%
    15:00 +24°C° 0 mm 3 mps 758 mmHg 37%
    16:00 +24°C° 0 mm 3 mps 758 mmHg 39%
    17:00 +24°C° 0 mm 2 mps 758 mmHg 41%
    18:00 +20°C° 0 mm 2 mps 757 mmHg 50%
    19:00 +18°C° 0 mm 2 mps 757 mmHg 59%
    20:00 +16°C° 0 mm 2 mps 757 mmHg 67%
    21:00 +15°C° 0 mm 2 mps 757 mmHg 69%
    22:00 +14°C° 0 mm 2 mps 757 mmHg 71%
    23:00 +13°C° 0 mm 2 mps 758 mmHg 73%

    Day after tomorrow, 27 May, Sunday

    Time Temperature Precipitation Wind Pressure Humidity
    00:00 +13°C° 0 mm 2 mps 757 mmHg 74%
    01:00 +13°C° 0 mm 2 mps 757 mmHg 74%
    02:00 +12°C° 0 mm 2 mps 757 mmHg 75%
    03:00 +12°C° 0 mm 3 mps 757 mmHg 74%
    04:00 +12°C° 0 mm 3 mps 757 mmHg 73%
    05:00 +13°C° 0 mm 3 mps 757 mmHg 73%
    06:00 +16°C° 0 mm 3 mps 756 mmHg 68%
    07:00 +18°C° 0 mm 4 mps 756 mmHg 63%
    08:00 +20°C° 0 mm 4 mps 756 mmHg 58%
    09:00 +21°C° 0 mm 4 mps 755 mmHg 54%
    10:00 +22°C° 0 mm 4 mps 755 mmHg 50%
    11:00 +23°C° 0 mm 5 mps 755 mmHg 47%
    12:00 +23°C° 0 mm 5 mps 754 mmHg 47%
    13:00 +25°C° 0 mm 4 mps 754 mmHg 47%
    14:00 +25°C° 0 mm 4 mps 754 mmHg 48%
    15:00 +23°C° 0.1 mm 4 mps 754 mmHg 46%
    16:00 +23°C° 0.1 mm 4 mps 754 mmHg 44%
    17:00 +22°C° 0.1 mm 4 mps 753 mmHg 42%
    18:00 +20°C° 0 mm 4 mps 754 mmHg 45%
    19:00 +18°C° 0 mm 3 mps 754 mmHg 47%
    20:00 +14°C° 0 mm 3 mps 755 mmHg 50%
    21:00 +13°C° 0 mm 3 mps 755 mmHg 52%
    22:00 +13°C° 0 mm 2 mps 756 mmHg 55%
    23:00 +10°C° 0 mm 2 mps 756 mmHg 57%

    28 May, Monday

    Time Temperature Precipitation Wind Pressure Humidity
    00:00 +9°C° 0 mm 2 mps 757 mmHg 58%
    01:00 +9°C° 0 mm 2 mps 757 mmHg 59%
    02:00 +8°C° 0 mm 2 mps 758 mmHg 59%
    03:00 +8°C° 0 mm 2 mps 758 mmHg 58%
    04:00 +8°C° 0 mm 2 mps 759 mmHg 58%
    05:00 +9°C° 0 mm 2 mps 759 mmHg 57%
    06:00 +12°C° 0 mm 2 mps 759 mmHg 51%
    07:00 +13°C° 0 mm 2 mps 759 mmHg 45%
    08:00 +15°C° 0 mm 2 mps 760 mmHg 40%
    09:00 +17°C° 0 mm 2 mps 760 mmHg 36%
    10:00 +18°C° 0 mm 2 mps 760 mmHg 32%
    11:00 +19°C° 0 mm 2 mps 759 mmHg 28%
    12:00 +20°C° 0 mm 2 mps 759 mmHg 28%
    13:00 +20°C° 0 mm 2 mps 759 mmHg 27%
    14:00 +21°C° 0 mm 2 mps 759 mmHg 27%
    15:00 +21°C° 0 mm 2 mps 759 mmHg 29%
    16:00 +21°C° 0 mm 2 mps 758 mmHg 31%
    17:00 +20°C° 0 mm 2 mps 758 mmHg 34%
    18:00 +19°C° 0 mm 1 mps 758 mmHg 41%
    19:00 +16°C° 0 mm 1 mps 758 mmHg 49%
    20:00 +14°C° 0 mm 1 mps 758 mmHg 57%
    21:00 +13°C° 0 mm 1 mps 758 mmHg 57%
    22:00 +13°C° 0 mm 1 mps 758 mmHg 58%
    23:00 +12°C° 0 mm 1 mps 759 mmHg 59%

    29 May, Tuesday

    Time Temperature Precipitation Wind Pressure Humidity
    00:00 +11°C° 0 mm 1 mps 759 mmHg 60%
    01:00 +11°C° 0 mm 1 mps 759 mmHg 61%
    02:00 +11°C° 0 mm 1 mps 759 mmHg 62%
    03:00 +11°C° 0 mm 1 mps 759 mmHg 62%
    04:00 +12°C° 0 mm 1 mps 759 mmHg 63%
    05:00 +12°C° 0 mm 2 mps 759 mmHg 63%
    06:00 +15°C° 0 mm 2 mps 759 mmHg 57%
    07:00 +17°C° 0 mm 2 mps 759 mmHg 51%
    08:00 +19°C° 0 mm 2 mps 759 mmHg 45%
    09:00 +21°C° 0 mm 2 mps 758 mmHg 41%
    10:00 +22°C° 0 mm 3 mps 758 mmHg 38%
    11:00 +24°C° 0 mm 3 mps 758 mmHg 34%
    12:00 +25°C° 0 mm 3 mps 757 mmHg 34%
    13:00 +25°C° 0 mm 3 mps 757 mmHg 33%
    14:00 +26°C° 0 mm 3 mps 756 mmHg 33%
    15:00 +26°C° 0 mm 3 mps 756 mmHg 36%
    16:00 +25°C° 0 mm 3 mps 755 mmHg 38%
    17:00 +25°C° 0 mm 3 mps 755 mmHg 41%
    18:00 +22°C° 0 mm 3 mps 754 mmHg 50%
    19:00 +20°C° 0 mm 2 mps 754 mmHg 59%
    20:00 +17°C° 0 mm 2 mps 753 mmHg 68%
    21:00 +17°C° 0 mm 2 mps 753 mmHg 71%
    22:00 +16°C° 0 mm 2 mps 753 mmHg 74%
    23:00 +15°C° 0 mm 2 mps 753 mmHg 76%

    30 May, Wednesday

    Time Temperature Precipitation Wind Pressure Humidity
    00:00 +14°C° 0 mm 2 mps 752 mmHg 77%
    01:00 +14°C° 0 mm 2 mps 752 mmHg 78%
    02:00 +13°C° 0 mm 3 mps 752 mmHg 79%
    03:00 +13°C° 0 mm 3 mps 751 mmHg 76%
    04:00 +14°C° 0 mm 3 mps 751 mmHg 73%
    05:00 +14°C° 0 mm 4 mps 751 mmHg 70%
    06:00 +17°C° 0 mm 4 mps 750 mmHg 64%
    07:00 +19°C° 0 mm 4 mps 750 mmHg 58%
    08:00 +21°C° 0 mm 5 mps 749 mmHg 52%
    09:00 +23°C° 0 mm 5 mps 749 mmHg 49%
    10:00 +24°C° 0 mm 6 mps 748 mmHg 45%
    11:00 +26°C° 0 mm 6 mps 748 mmHg 42%
    12:00 +27°C° 0 mm 6 mps 747 mmHg 41%
    13:00 +27°C° 0 mm 6 mps 747 mmHg 40%
    14:00 +28°C° 0 mm 6 mps 747 mmHg 38%
    15:00 +27°C° 0 mm 6 mps 746 mmHg 40%
    16:00 +27°C° 0 mm 5 mps 746 mmHg 42%
    17:00 +26°C° 0 mm 5 mps 746 mmHg 44%
    18:00 +23°C° 0 mm 4 mps 746 mmHg 49%
    19:00 +22°C° 0 mm 4 mps 746 mmHg 53%
    20:00 +20°C° 0 mm 3 mps 746 mmHg 58%
    21:00 +18°C° 0 mm 3 mps 746 mmHg 57%
    22:00 +16°C° 0 mm 3 mps 746 mmHg 55%
    23:00 +14°C° 0 mm 4 mps 747 mmHg 54%
    Show more